Location: Fauquembergues
(50.6005°N, 2.0987°E)
Time: 04:14:12
(UTC+00:00)

Cosmos 1954 Rocket - Pass Details

Date: 14 July 2020
Orbit: 751 x 782 km, 74.0° (Epoch: 06 August)

Event Time Altitude Azimuth Distance (km) Brightness Sun altitude
Exits shadow 02:08:19 15° 189° (S) 1,994 5.6 -12.2°
Maximum altitude 02:12:41 67° 109° (ESE) 843 4.3 -11.9°
Drops below altitude 10° 02:17:57 10° 29° (NNE) 2,344 8.1 -11.4°
Sets 02:20:22 0° 26° (NNE) 3,278 9.4 -11.2°
